Regional Weather Roundup
Issued by NWS

Home | Current Version | Previous Version | Graphics & Text | Print | Product List | Glossary On
Versions: 1 2 3 4 5 6 7 8 9 10 11 12 13 14 15 16 17 18 19 20 21 22 23 24 25 26 27 28 29 30 31 32 33 34 35 36 37 38 39 40 41 42 43 44 45 46 47 48 49 50
000
ASUS43 KTOP 310459
RWRKS

WEATHER ROUNDUP FOR KANSAS
NATIONAL WEATHER SERVICE GOODLAND KS
1100 PM CST FRI JAN 30 2015

NOTE:  "FAIR" INDICATES FEW OR NO CLOUDS BELOW 12,000 FEET WITH NO
SIGNIFICANT WEATHER AND/OR OBSTRUCTIONS TO VISIBILITY.

KSZ001>006-013>018-027>032-041>047-310600-
NORTHWEST KANSAS

CITY           SKY/WX    TMP DP  RH WIND       PRES   REMARKS
GOODLAND       CLOUDY    33  32  96 S15       30.09F WCI  23
HAYS           CLOUDY    36  28  75 S10       30.23F WCI  28
HILL CITY      MIX PCPN  34  33  96 S6        30.21F FOG
RUSSELL        LGT RAIN  34  33  96 S7        30.23F
$$

KSZ061>065-074>080-084>089-310600-
SOUTHWEST KANSAS

CITY           SKY/WX    TMP DP  RH WIND       PRES   REMARKS
DODGE CITY     LGT RAIN  33  30  88 S16       30.20F WCI  23
ELKHART          N/A     34  28  79 S14         N/A  WCI  25
GARDEN CITY    MIX PCPN  32  31  96 S14       30.17F WCI  22
LIBERAL        CLOUDY    36  30  80 SE12      30.22F WCI  27
$$

KSZ066>073-081>083-090>101-310600-
SOUTHEAST KANSAS

CITY           SKY/WX    TMP DP  RH WIND       PRES   REMARKS
CHANUTE        CLOUDY    38  27  64 CALM      30.36S
COFFEYVILLE    CLOUDY    38  29  70 CALM      30.37S
HUTCHINSON     CLOUDY    38  29  70 SE6       30.29F
MEDICINE LODGE   N/A     38  26  62 S7        30.27F
NEWTON         CLOUDY    37  27  65 E5        30.31F
PARSONS        CLOUDY    38  29  70 CALM      30.37F
WICHITA INTL   LGT RAIN  40  27  59 NE8       30.29F
WICHITA JABRA  CLOUDY    39  26  59 S6        30.31F
WINFIELD       CLOUDY    41  23  48 E10       30.33F
$$

KSZ007>012-019>026-033>040-048>060-102>105-310600-
NORTHEAST KANSAS

CITY           SKY/WX    TMP DP  RH WIND       PRES   REMARKS
CONCORDIA      LGT RAIN  35  35 100 S9        30.29S FOG
EMPORIA        CLOUDY    37  25  61 S5        30.33F
LAWRENCE       CLOUDY    33  25  72 E6        30.35F
MANHATTAN      LGT RAIN  36  34  92 SW8       30.32F
OLATHE IND     CLOUDY    34  23  64 S3        30.35F
OLATHE EXE     CLOUDY    33  22  63 S3        30.34F
SALINA         LGT RAIN  37  32  82 S6        30.31F
TOPEKA BILLARD CLOUDY    39  24  55 CALM      30.33F
TOPEKA FORBES  CLOUDY    38  24  57 S7        30.33F
$$


USA.gov is the U.S. government's official web portal to all federal, state and local government web resources and services.